          19 12  14 36.86  +42 26.3   4.332  3.991    11.9 / 125  13.7  121 1.00

          20 12  14 37.74  +42 19.6   4.331  3.995    11.7 / 124  13.7  114 1.00

          21 12  14 38.61  +42 13.0   4.330  3.999    11.6 / 124  13.7  107  .98

          22 12  14 39.48  +42 06.6   4.329  4.003    11.4 / 123  13.7  100  .94

          23 12  14 40.34  +42 00.4   4.328  4.008    11.2 / 123  13.7   92  .89

          24 12  14 41.19  +41 54.3   4.327  4.012    11.1 / 122  13.7   84  .81

          25 12  14 42.03  +41 48.5   4.326  4.016    10.9 / 121  13.7   76  .73

          26 12  14 42.86  +41 42.8   4.324  4.020    10.7 / 121  13.7   68  .63

          27 12  14 43.68  +41 37.2   4.323  4.024    10.6 / 120  13.7   61  .52

          28 12  14 44.49  +41 31.9   4.321  4.028    10.4 / 120  13.7   55  .41

          29 12  14 45.30  +41 26.7   4.319  4.033    10.2 / 119  13.7   51  .30

          30 12  14 46.09  +41 21.7   4.318  4.037    10.1 / 119  13.7   49  .20

     Dec.  1 12  14 46.87  +41 16.9   4.316  4.041     9.9 / 118  13.7   51  .11

NAKANO

         **** Don't distribute anyone except personal use only ****

                (C) Copyright 2002 OAA/ComputingSection

write mail from CFAD0::NAKANO on 2002-10-19 20:46:50(JST).

    C/2000 SV74 (LINEAR) 

Epoch 2002 May 6.0 TT = JDT 2452400.5  

T 2002 Apr. 30.49703 TT                                 Nakano

q   3.5415594            (2000.0)            P               Q

z  -0.0013582      Peri.   76.23129     +0.11571556     -0.91085710

 +/-0.0000009      Node    24.18551     -0.07699158     -0.40587262

e   1.0048103      Incl.   75.23730     +0.99029400     +0.07487834

From 717 observations 2000 Sept. 5-2002 June 18, mean residual 0".66.

   (1/a)org.= +0.000079, (1/a)fut.= -0.000057 (+/-0.000001), Q= 8.



NAKANO

         **** Don't distribute anyone except personal use only ****

                (C) Copyright 2002 OAA/ComputingSection

write mail from CFAD0::NAKANO on 2002-06-24 23:03:41(JST).



    C/2000 SV74 (LINEAR) 

Epoch 2002 May 6.0 TT = JDT 2452400.5  

T 2002 Apr. 30.49757 TT                                 Nakano

q   3.5415421            (2000.0)            P               Q

z  -0.0013604      Peri.   76.23165     +0.11570976     -0.91085796

 +/-0.0000010      Node    24.18550     -0.07699368     -0.40587182

e   1.0048180      Incl.   75.23727     +0.99029451     +0.07487226

From 687 observations 2000 Sept. 5-2002 May 8, mean residual 0".64.

   (1/a)org.= +0.000076, (1/a)fut.= -0.000059 (+/-0.000001), Q= 8.



         **** Don't distribute anyone except personal use only ****

                (C) Copyright 2002 OAA/ComputingSection

write mail from CFAD0::NAKANO on 2002-05-23 04:49:42(JST).

 

◎C/2000 SV74の軌道と予報位置です



 3月27日の上尾の門田健一氏の観測では13.9等,5月5日の八束の安部裕史氏の

観測では14.5等と報告されています.



    C/2000 SV74 (LINEAR) 

Epoch 2002 May 6.0 TT = JDT 2452400.5  

T 2002 Apr. 30.49763 TT                                 Nakano

q   3.5415400            (2000.0)            P               Q

z  -0.0013607      Peri.   76.23170     +0.11570902     -0.91085810

 +/-0.0000010      Node    24.18549     -0.07699385     -0.40587163

e   1.0048190      Incl.   75.23726     +0.99029459     +0.07487153

From 677 observations 2000 Sept. 5-2002 May  5, mean residual 0".64.

   (1/a)org.= +0.000076, (1/a)fut.= -0.000060 (+/-0.000001), Q= 8.

 

Date/        TT  R.A.(2000) Decl.     Delta   r     Daily motion  Mag.  Moon Age

              h    h  m       。  ,                      ,  / PA 。  m1      。

2002 May   5 18  01 13.93  +73 34.8   3.957  3.542    21.9 /  31  13.0   94  .36

           6 18  01 16.67  +73 53.3   3.957  3.542    22.0 /  32  13.0   88  .27

           7 18  01 19.49  +74 12.0   3.956  3.542    22.1 /  32  13.0   82  .19

           8 18  01 22.40  +74 30.7   3.956  3.542    22.2 /  32  13.0   77  .13

           9 18  01 25.40  +74 49.4   3.956  3.543    22.3 /  32  13.0   72  .07

          10 18  01 28.50  +75 08.2   3.955  3.543    22.4 /  33  13.0   67  .03

          11 18  01 31.70  +75 27.0   3.955  3.543    22.5 /  33  13.0   63  .01

          12 18  01 35.01  +75 45.8   3.955  3.543    22.6 /  33  13.0   61  .00

          13 18  01 38.44  +76 04.6   3.954  3.544    22.7 /  34  13.0   59  .02

          14 18  01 42.00  +76 23.5   3.954  3.544    22.8 /  34  13.0   59  .05

          15 18  01 45.69  +76 42.3   3.953  3.544    22.9 /  34  13.0   61  .11

          16 18  01 49.53  +77 01.1   3.953  3.545    23.0 /  35  13.0   64  .19

          17 18  01 53.52  +77 19.9   3.953  3.545    23.1 /  35  13.0   68  .28

          18 18  01 57.68  +77 38.6   3.952  3.545    23.2 /  36  13.0   73  .38

          19 18  02 02.03  +77 57.3   3.952  3.546    23.3 /  36  13.0   80  .49

          20 18  02 06.56  +78 15.9   3.951  3.546    23.4 /  37  13.0   86  .61

          21 18  02 11.31  +78 34.4   3.951  3.547    23.5 /  38  13.0   93  .72

          22 18  02 16.28  +78 52.8   3.951  3.547    23.6 /  39  13.0  100  .82

          23 18  02 21.49  +79 11.1   3.950  3.548    23.6 /  39  13.0  107  .90

          24 18  02 26.97  +79 29.2   3.950  3.548    23.7 /  40  13.0  112  .96

          25 18  02 32.73  +79 47.1   3.950  3.549    23.8 /  41  13.0  117  .99

          26 18  02 38.79  +80 04.8   3.950  3.550    23.9 /  42  13.0  120 1.00

          27 18  02 45.19  +80 22.3   3.949  3.550    24.0 /  43  13.0  121  .98

          28 18  02 51.94  +80 39.5   3.949  3.551    24.1 /  44  13.0  120  .94

          29 18  02 59.08  +80 56.4   3.949  3.552    24.1 /  46  13.0  118  .88

          30 18  03 06.63  +81 13.0   3.949  3.552    24.2 /  47  13.0  115  .80

          31 18  03 14.62  +81 29.1   3.949  3.553    24.3 /  49  13.0  110  .71

     June  1 18  03 23.09  +81 44.8   3.949  3.554    24.4 /  50  13.0  105  .62

           2 18  03 32.07  +82 00.0   3.949  3.555    24.4 /  52  13.0  100  .52

           3 18  03 41.59  +82 14.7   3.949  3.555    24.5 /  54  13.0   95  .43

           4 18  03 51.68  +82 28.7   3.949  3.556    24.6 /  56  13.0   89  .34

           5 18  04 02.36  +82 41.9   3.949  3.557    24.6 /  58  13.0   83  .25

NAKANO

         **** Don't distribute anyone except personal use only ****

                (C) Copyright 2002 OAA/ComputingSection

write mail from CFAD0::NAKANO on 2002-05-06 20:29:11(JST).

 

    C/2000 SV74 (LINEAR) 

Epoch 2002 May 6.0 TT = JDT 2452400.5  

T 2002 Apr. 30.49799 TT                                 Nakano

q   3.5415385            (2000.0)            P               Q

z  -0.0013598      Peri.   76.23175     +0.11570810     -0.91085822

 +/-0.0000011      Node    24.18549     -0.07699419     -0.40587153

e   1.0048158      Incl.   75.23725     +0.99029467     +0.07487056

From 666 observations 2000 Sept. 5-2002 Apr. 5, mean residual 0".64.

   (1/a)org.= +0.000077, (1/a)fut.= -0.000059 (+/-0.0000011), Q= 8.



NAKANO

         **** Don't distribute anyone except personal use only ****

                (C) Copyright 2002 OAA/ComputingSection

write mail from CFAD0::NAKANO on 2002-04-26 05:07:08(JST).

 



    C/2000 SV74 (LINEAR) 

Epoch 2002 May  6.0 TT = JDT 2452400.5  

T 2002 Apr. 30.49792 TT                                 Nakano

q   3.5415377            (2000.0)            P               Q

z  -0.0013602      Peri.   76.23176     +0.11570796     -0.91085824

 +/-0.0000012      Node    24.18549     -0.07699425     -0.40587150

e   1.0048173      Incl.   75.23725     +0.99029468     +0.07487042

From 647 observations 2000 Sept. 5-2002 Feb. 13, mean residual 0".64.



NAKANO

         **** Don't distribute anyone except personal use only ****

                (C) Copyright 2002 OAA/ComputingSection

write mail from CFAD0::NAKANO on 2002-02-25 23:29:25(JST).

 



    C/2000 SV74 (LINEAR) 

Epoch 2002 May  6.0 TT = JDT 2452400.5  

T 2002 Apr. 30.49799 TT                                 Nakano

q   3.5415377            (2000.0)            P               Q

z  -0.0013600      Peri.   76.23177     +0.11570788     -0.91085825

 +/-0.0000012      Node    24.18549     -0.07699428     -0.40587150

e   1.0048165      Incl.   75.23725     +0.99029469     +0.07487033

From 637 observations 2000 Sept. 5-2002 Jan. 26, mean residual 0".65.





NAKANO

         **** Don't distribute anyone except personal use only ****

                (C) Copyright 2002 OAA/ComputingSection

write mail from CFAD0::NAKANO on 2002-01-29 00:05:43(JST).

 

    C/2000 SV74 (LINEAR) 

Epoch 2002 May  6.0 TT = JDT 2452400.5  

T 2002 Apr. 30.50155 TT                                 Nakano

q   3.5415082            (2000.0)            P               Q

z  -0.0013532      Peri.   76.23256     +0.11569561     -0.91085969

 +/-0.0000018      Node    24.18550     -0.07700065     -0.40587082

e   1.0047924      Incl.   75.23731     +0.99029563     +0.07485659

From 528 observations 2000 Sept. 5-2001 Nov. 24, mean residual 0".63.



NAKANO

         **** Don't distribute anyone except personal use only ****

                (C) Copyright 2001 OAA/ComputingSection

write mail from CFAD0::NAKANO on 2001-11-27 01:14:55(JST).

 



    C/2000 SV74 (LINEAR) 

Epoch 2002 May 6.0 TT = JDT 2452400.5  

T 2002 Apr. 30.49941 TT                                 Nakano

q   3.5415184            (2000.0)            P               Q

z  -0.0013582      Peri.   76.23221     +0.11570083     -0.91085912

 +/-0.0000025      Node    24.18549     -0.07699756     -0.40587099

e   1.0048100      Incl.   75.23726     +0.99029526     +0.07486260

From 449 observations 2000 Sept. 5-2001 Oct. 27, mean residual 0".65.



NAKANO

         **** Don't distribute anyone except personal use only ****

                (C) Copyright 2001 OAA/ComputingSection

write mail from CFAD0::NAKANO on 2001-10-29 22:52:42(JST).

 

    C/2000 SV74 (LINEAR) 

Epoch 2002 May 6.0 TT = JDT 2452400.5  

T 2002 Apr. 30.49092 TT                                 Nakano

q   3.5415364            (2000.0)            P               Q

